Location: Antioch Baptist Church
(32.6696°N, 85.7327°W)
Time: 00:35:44
(UTC+00:00)

Centaur AC-72 - Pass Details

Date: 14 July 2020
Orbit: 1130 x 35226 km, 19.1° (Epoch: 12 August)

Event Time Altitude Azimuth Distance (km) Brightness Sun altitude
Exits shadow 08:18:20 27° 166° (SSE) 2,281 4.1 -25.1°
Drops below altitude 10° 08:22:22 10° 121° (ESE) 2,997 5.1 -24.5°
Sets 08:25:07 0° 107° (ESE) 4,045 6.0 -24.2°
